This demonstration page uses our WeatherBlox Daily Observations layout. Learn more.

Left ArrowRight Arrow

Hourly Observations for April 19, 2021

Temp ( °F °C ) Dew Point ( °F °C ) Humidity (%) Winds ( mph kmh ) Pressure ( in mb ) Visibility ( mi km ) Precip ( " mm )
12:15 am 00:15 Mostly Cloudy 46 8 43 6 87 87 SSW 6 9 29.93 1013 10 16 N/A
12:35 am 00:35 Clear 48 9 43 6 82 82 N N/A 29.91 1013 10 16 N/A
12:55 am 00:55 Clear 46 8 43 6 87 87 N N/A 29.93 1013 10 16 N/A
1:15 am 01:15 Clear 46 8 43 6 87 87 N N/A 29.93 1013 10 16 N/A
1:35 am 01:35 Mostly Cloudy 46 8 45 7 93 93 N N/A 29.93 1013 10 16 N/A
1:55 am 01:55 Partly Cloudy 45 7 43 6 93 93 N N/A 29.92 1013 10 16 N/A
2:15 am 02:15 Partly Cloudy 43 6 43 6 100 100 N N/A 29.92 1013 10 16 N/A
2:35 am 02:35 Clear 43 6 43 6 100 100 N N/A 29.91 1013 10 16 N/A
2:55 am 02:55 Clear 43 6 43 6 100 100 N N/A 29.91 1013 10 16 N/A
3:15 am 03:15 Clear 43 6 43 6 100 100 N N/A 29.91 1013 10 16 N/A
3:35 am 03:35 Clear 43 6 43 6 100 100 N N/A 29.90 1013 10 16 N/A
3:55 am 03:55 Clear 43 6 43 6 100 100 N N/A 29.90 1013 10 16 N/A
4:16 am 04:16 Clear 41 5 41 5 100 100 N N/A 29.92 1013 10 16 N/A
4:35 am 04:35 Clear 41 5 41 5 100 100 N N/A 29.92 1013 10 16 N/A
4:55 am 04:55 Clear 43 6 43 6 100 100 N N/A 29.91 1013 10 16 N/A
5:15 am 05:15 Clear 41 5 41 5 100 100 N N/A 29.91 1013 10 16 N/A
5:35 am 05:35 Clear 41 5 41 5 100 100 N N/A 29.91 1013 10 16 N/A
5:55 am 05:55 Clear 39 4 39 4 100 100 N N/A 29.91 1013 10 16 N/A
6:15 am 06:15 Partly Cloudy 41 5 41 5 100 100 N N/A 29.91 1013 10 16 N/A
6:35 am 06:35 Clear 39 4 39 4 100 100 N N/A 29.91 1013 10 16 N/A
6:55 am 06:55 Clear 41 5 41 5 100 100 N N/A 29.92 1013 10 16 N/A
7:15 am 07:15 Sunny 39 4 39 4 100 100 N N/A 29.92 1013 10 16 N/A
7:35 am 07:35 Sunny 41 5 41 5 100 100 N N/A 29.92 1013 10 16 N/A
7:55 am 07:55 Sunny 43 6 43 6 100 100 N N/A 29.92 1013 10 16 N/A
8:15 am 08:15 Sunny 45 7 45 7 100 100 N N/A 29.92 1013 10 16 N/A
8:35 am 08:35 Sunny 46 8 46 8 100 100 N N/A 29.93 1013 10 16 N/A
8:55 am 08:55 Sunny 50 10 46 8 88 88 N N/A 29.92 1013 10 16 N/A
9:15 am 09:15 Sunny 52 11 46 8 82 82 N N/A 29.92 1013 10 16 N/A
9:35 am 09:35 Sunny 54 12 45 7 72 72 W 10 17 29.91 1013 10 16 N/A
9:55 am 09:55 Sunny 54 12 45 7 72 72 W 8 13 29.91 1013 10 16 N/A
10:16 am 10:16 Sunny 55 13 45 7 67 67 N N/A 29.90 1013 10 16 N/A
10:35 am 10:35 Sunny 57 14 45 7 63 63 W 9 15 29.90 1012 10 16 N/A
10:55 am 10:55 Sunny 59 15 45 7 59 59 WSW 10 17 29.89 1012 10 16 N/A
11:15 am 11:15 Sunny 59 15 45 7 59 59 W 7 11 29.89 1012 10 16 N/A
11:35 am 11:35 Sunny 61 16 45 7 55 55 WSW 13 20 29.89 1012 10 16 N/A
11:55 am 11:55 Sunny 61 16 45 7 55 55 W 14 22 29.89 1012 10 16 N/A
12:16 pm 12:16 Partly Cloudy 61 16 43 6 52 52 WSW 15 24 29.88 1012 10 16 N/A
12:35 pm 12:35 Mostly Cloudy 63 17 43 6 49 49 WSW 14 22 29.88 1012 10 16 N/A
12:55 pm 12:55 Mostly Cloudy 61 16 43 6 52 52 SW 17 28 29.88 1012 10 16 N/A
1:15 pm 13:15 Mostly Cloudy 63 17 41 5 45 45 WSW 8 13 29.87 1011 10 16 N/A
1:35 pm 13:35 Partly Cloudy 64 18 41 5 43 43 WSW 17 28 29.86 1011 10 16 N/A
1:55 pm 13:55 Mostly Cloudy 64 18 41 5 43 43 SW 18 30 29.86 1011 10 16 N/A
2:15 pm 14:15 Partly Cloudy 64 18 43 6 46 46 WSW 20 31 29.86 1011 10 16 N/A
2:35 pm 14:35 Partly Cloudy 64 18 41 5 43 43 WSW 16 26 29.85 1011 10 16 N/A
2:55 pm 14:55 Sunny 64 18 41 5 43 43 W 18 30 29.85 1011 10 16 N/A
3:15 pm 15:15 Partly Cloudy 64 18 41 5 43 43 W 18 30 29.83 1010 10 16 N/A
3:35 pm 15:35 Sunny 66 19 41 5 40 40 WSW 21 33 29.83 1010 10 16 N/A
3:55 pm 15:55 Sunny 66 19 41 5 40 40 WSW 21 33 29.83 1010 10 16 N/A
4:15 pm 16:15 Sunny 66 19 41 5 40 40 SW 24 39 29.83 1010 10 16 N/A
4:55 pm 16:55 Mostly Cloudy 66 19 41 5 40 40 WSW 24 39 29.83 1010 10 16 N/A
5:15 pm 17:15 Mostly Cloudy 64 18 41 5 43 43 SW 18 30 29.83 1010 10 16 N/A
5:35 pm 17:35 Mostly Cloudy 66 19 41 5 40 40 SW 18 30 29.83 1010 10 16 N/A
5:55 pm 17:55 Mostly Cloudy 66 19 41 5 40 40 WSW 17 28 29.83 1010 10 16 N/A
6:15 pm 18:15 Mostly Cloudy 64 18 41 5 43 43 WSW 20 31 29.83 1010 10 16 N/A
6:35 pm 18:35 Mostly Cloudy 63 17 39 4 42 42 WSW 20 31 29.84 1010 10 16 N/A
6:55 pm 18:55 Mostly Cloudy 64 18 41 5 43 43 WSW 15 24 29.83 1010 10 16 N/A
7:15 pm 19:15 Cloudy 64 18 41 5 43 43 SW 14 22 29.83 1010 10 16 N/A
7:35 pm 19:35 Cloudy 63 17 41 5 45 45 W 17 28 29.85 1011 10 16 N/A
7:55 pm 19:55 Partly Cloudy 55 13 45 7 67 67 NNW 15 24 29.87 1012 10 16 N/A
8:15 pm 20:15 Sunny 52 11 45 7 77 77 NW 14 22 29.90 1012 10 16 N/A
8:35 pm 20:35 Partly Cloudy 50 10 45 7 82 82 NW 10 17 29.91 1013 10 16 N/A
8:55 pm 20:55 Partly Cloudy 48 9 45 7 87 87 NNW 15 24 29.93 1014 10 16 N/A
9:15 pm 21:15 Clear 46 8 43 6 87 87 NNW 16 26 29.95 1014 10 16 N/A
9:35 pm 21:35 Clear 45 7 43 6 93 93 NNW 12 19 29.96 1015 10 16 N/A
9:55 pm 21:55 Clear 45 7 41 5 87 87 NNW 6 9 29.98 1015 10 16 N/A
10:15 pm 22:15 Clear 45 7 41 5 87 87 NW 12 19 29.99 1016 10 16 N/A
10:35 pm 22:35 Clear 43 6 41 5 93 93 N N/A 29.99 1016 10 16 N/A
10:55 pm 22:55 Clear 43 6 41 5 93 93 NNW 10 17 30.00 1016 10 16 N/A
11:15 pm 23:15 Clear 43 6 39 4 87 87 NNW 9 15 30.01 1016 10 16 N/A
11:35 pm 23:35 Clear 43 6 39 4 87 87 NNW 12 19 30.01 1016 10 16 N/A
11:55 pm 23:55 Clear 41 5 39 4 93 93 NNW 6 9 30.02 1017 10 16 N/A

Powered by AerisWeather